Regional Weather Roundup
Issued by NWS

Home | Current Version | Previous Version | Text Only | Print | Product List | Glossary On
Versions: 1 2 3 4 5 6 7 8 9 10 11 12 13 14 15 16 17 18 19 20 21 22 23 24 25 26 27 28 29 30 31 32 33 34 35 36 37 38 39 40 41 42 43 44 45 46 47 48 49 50
000
ASUS46 KSEW 030310
RWRWA

WASHINGTON REGIONAL WEATHER ROUNDUP
NATIONAL WEATHER SERVICE SEATTLE WA
700 PM PST MON MAR 02 2015

NOTE:"FAIR" INDICATES FEW OR NO CLOUDS BELOW 12,000 FEET WITH NO
SIGNIFICANT WEATHER AND/OR OBSTRUCTIONS TO VISIBILITY.

WAZ505-507>509-030400-
SEATTLE, TACOMA, EVERETT, AND VICINITY

CITY           SKY/WX    TMP DP  RH WIND       PRES   REMARKS
EVERETT        CLEAR     44  31  60 W6        30.06R
BOEING FIELD   PTCLDY    50  29  44 CALM      30.07R
RENTON         CLEAR     47  34  60 CALM      30.07R
SEATAC AIRPORT PTCLDY    46  29  51 N8        30.07R
JBLM-MCCHORD   CLEAR     45  30  55 NE3       30.06R
PUYALLUP       FAIR      43  32  65 CALM      30.07R
BREMERTON      CLEAR     46  23  39 N9G18     30.09R
JBLM-FT LEWIS  CLEAR     45  33  61 E2        30.06R
TACOMA NARROWS CLEAR     48  25  40 NE6       30.07R
$$

WAZ001-503-506-510-514-515-030400-
NORTH INTERIOR

CITY           SKY/WX    TMP DP  RH WIND       PRES   REMARKS
BELLINGHAM     CLEAR     47  15  27 NE10G20   30.09R
FRIDAY HARBOR  CLEAR     45  34  65 N7        30.11R
EASTSOUND      CLEAR     41  37  87 CALM      30.10R
PORT ANGELES   CLEAR     41  31  67 SW9       30.11R
NAS WHIDBEY    PTCLDY    49  36  61 NW12      30.10R
ARLINGTON      CLEAR     43  27  52 CALM      30.08R
BURLINGTON     CLEAR     45  37  76 NW9       30.09R
$$

WAZ020-022-039-040-504-511-512-030400-
SOUTHWEST INTERIOR

CITY           SKY/WX    TMP DP  RH WIND       PRES   REMARKS
SHELTON        CLEAR     42  27  55 CALM      30.05R
OLYMPIA        CLEAR     42  31  64 E3        30.07R
CHEHALIS       FAIR      43  36  75 CALM      30.06S
KELSO          CLEAR     46  30  53 CALM      30.08R
VANCOUVER      CLEAR     50  28  42 VRB7      30.02R
SCAPPOOSE, OR  CLEAR     49  30  48 N6        30.03R
PORTLAND, OR   PTCLDY    49  31  49 NW9       30.03R
$$

WAZ021-516-517-030400-
WASHINGTON COAST

CITY           SKY/WX    TMP DP  RH WIND       PRES   REMARKS
FORKS          CLEAR     42  38  85 N7        30.09R
HOQUIAM        CLOUDY    48  43  82 SE8       30.07R
ASTORIA, OR    CLOUDY    47  40  76 NW10      30.07R
$$

WAZ019-023-024-040-518-519-030400-
CASCADE MOUNTAINS AND COLUMBIA GORGE

CITY           SKY/WX    TMP DP  RH WIND       PRES   REMARKS
TROUTDALE, OR  CLEAR     51  30  44 W6        30.01R
THE DALLES, OR CLOUDY    47  30  51 CALM      30.00R
$$

WAZ026-027-041>044-520-521-030400-
EAST SLOPES

CITY           SKY/WX    TMP DP  RH WIND       PRES   REMARKS
OMAK           CLEAR     39  17  41 N14G28    30.06R
WENATCHEE      PTCLDY    46  10  23 N22G30    30.01R
ELLENSBURG     LGT RAIN  41  34  76 NW13G18   30.00R
YAKIMA         CLOUDY    45  30  55 N13       30.02R
$$

WAZ028-034-035-030400-
COLUMBIA BASIN

CITY           SKY/WX    TMP DP  RH WIND       PRES   REMARKS
EPHRATA        PTCLDY    42  16  34 N18       29.99R
MOSES LAKE     PTCLDY    42  17  36 N25G32    29.98R
PASCO          CLOUDY    48  21  34 NW13      30.00R
HERMISTON, OR  MOCLDY    43  27  53 W6        29.99R
$$

WAZ036>038-030400-
NORTHEAST WASHINGTON

CITY           SKY/WX    TMP DP  RH WIND       PRES   REMARKS
SPOKANE GEIGER CLOUDY    33  31  92 CALM      29.90R
SPOKANE FELTS  LGT SNOW  35  29  78 E8        29.94R
FAIRCHILD AFB  MOCLDY    32  27  80 N7        29.90R
COEURDALENE,ID MOCLDY    32  25  74 N15G22    29.93R WCI  22
DEER PARK      FLURRIES  32  30  92 N8        29.95R
$$

WAZ029>033-030400-
SOUTHEAST WASHINGTON

CITY           SKY/WX    TMP DP  RH WIND       PRES   REMARKS
PULLMAN        LGT SNOW  34  29  82 W3        29.91R
LEWISTON, ID   CLOUDY    39  30  70 W8        29.93R
WALLA WALLA    CLOUDY    42  30  62 S6        29.97R
PENDLETON, OR  CLOUDY    38  28  67 W7        29.96R
$$



USA.gov is the U.S. government's official web portal to all federal, state and local government web resources and services.